Notices

What's New in latest Release from April 7th, 2021:

- Updated Glossary, including Speed of Maximum Gust, and Total Hourly Precipitation

- Updated national and regional climate services offices contacts and prices information

- Addition of station inventory lists for 1981-2010, 1971-2000, and 1961-1990 Normals.

If you haven't already, please take our survey and provide feedback about our website: https://eccc.sondage-survey.ca/f/LanguageSelection.aspx?s=442ca660-fcf1-47c0-95a9-59707d6fd709

Hourly Data Report for May 30, 2003

TORONTO CITY
ONTARIO

43°40'00.000" N
79°24'00.000" W
112.50 m
6158355
71508
XTO

Download Data

Hourly Data (May 2003)
Hourly Data Report for May 30, 2003
TIME
LST
Temp Definition
°C
Dew Point Definition
°C
Rel Hum Definition
%
Precip. Amount Definition
mm

Wind Dir Definition
10's deg

Wind Spd Definition
km/h
Visibility Definition
km
Stn Press Definition
kPa
Hmdx Definition


Wind Chill Definition


Weather Definition


00:00 15.6 10.4 71   LegendMM LegendMM LegendMM 98.97     LegendNANA
01:00 15.2 10.2 72   LegendMM LegendMM LegendMM 98.97     LegendNANA
02:00 14.8 10.2 74   LegendMM LegendMM LegendMM 98.96     LegendNANA
03:00 13.7 9.6 76   LegendMM LegendMM LegendMM 98.99     LegendNANA
04:00 13.4 9.3 76   LegendMM LegendMM LegendMM 99.02     LegendNANA
05:00 12.8 9.1 78   LegendMM LegendMM LegendMM 99.05     LegendNANA
06:00 12.6 9.1 79   LegendMM LegendMM LegendMM 99.13     LegendNANA
07:00 13.8 9.1 73   LegendMM LegendMM LegendMM 99.14     LegendNANA
08:00 15.6 9.5 67   LegendMM LegendMM LegendMM 99.13     LegendNANA
09:00 17.3 8.7 57   LegendMM LegendMM LegendMM 99.12     LegendNANA
10:00 18.6 8.3 51   LegendMM LegendMM LegendMM 99.10     LegendNANA
11:00 19.9 9.5 51   LegendMM LegendMM LegendMM 99.06     LegendNANA
12:00 18.9 9.1 53   LegendMM LegendMM LegendMM 99.11     LegendNANA
13:00 18.8 10.4 58   LegendMM LegendMM LegendMM 99.10     LegendNANA
14:00 19.0 9.2 53   LegendMM LegendMM LegendMM 99.07     LegendNANA
15:00 19.5 7.9 47   LegendMM LegendMM LegendMM 99.04     LegendNANA
16:00 18.6 7.1 47   LegendMM LegendMM LegendMM 99.04     LegendNANA
17:00 18.6 7.1 47   LegendMM LegendMM LegendMM 99.02     LegendNANA
18:00 17.7 6.9 49   LegendMM LegendMM LegendMM 99.03     LegendNANA
19:00 18.0 5.9 45   LegendMM LegendMM LegendMM 99.06     LegendNANA
20:00 18.3 6.2 45   LegendMM LegendMM LegendMM 99.05     LegendNANA
21:00 18.0 8.0 52   LegendMM LegendMM LegendMM 99.07     LegendNANA
22:00 17.4 5.4 45   LegendMM LegendMM LegendMM 99.05     LegendNANA
23:00 16.9 7.0 52   LegendMM LegendMM LegendMM 99.07     LegendNANA

Notes on Data Quality.

Legend

  • E = Estimated
  • M = Missing
  • NA = Not Available*
  • [empty] = Indicates an unobserved value
Date modified: